DW7126 Lourinha PT current weather conditions

sailwx.info

Wind from 344 at 7 knots gusting 17

Air temperature 18.9° C
Dewpoint 16.7° C

Last reported at 2016-Aug-30 20:21 UTC.
Time now 2016-Aug-31 02:10 UTC

Location: N 39°14' W 009°18'.
View on Google Maps.

See reports from other nearby stations

  
Tides and Currents Weather Stations Pressure Air Temp Water Temp Dewpoint Dewpoint Depression Visibility Wind Speed Wind Dir Waves Ship Positions
date/time (UTC)wind fromknots sea level pressurealtimeterstation pressurevisibilityair tempwater tempwave heightnotes
2016-Aug-30 20:21 344 7 gusting 17 18.9
2016-Aug-30 20:16 346 9 gusting 16 18.9
2016-Aug-30 20:11 355 10 gusting 15 18.9
2016-Aug-30 20:05 351 8 gusting 14 18.9
2016-Aug-30 20:00 022 8 gusting 13 18.9
2016-Aug-30 19:55 350 8 gusting 13 18.9
2016-Aug-30 19:50 024 6 gusting 14 18.9
2016-Aug-30 19:45 009 8 gusting 14 18.9
2016-Aug-30 19:40 342 7 gusting 13 19.4
2016-Aug-30 19:35 028 8 gusting 15 19.4
2016-Aug-30 19:30 022 9 gusting 15 19.4
2016-Aug-30 19:25 360 8 gusting 13 19.4
2016-Aug-30 19:21 360 6 gusting 13 19.4
2016-Aug-30 19:15 351 8 gusting 13 19.4
2016-Aug-30 19:10 344 7 gusting 13 19.4
2016-Aug-30 19:06 350 7 gusting 14 19.4
2016-Aug-30 19:00 318 8 gusting 14 19.4
2016-Aug-30 18:55 349 8 gusting 14 19.4
2016-Aug-30 18:50 344 6 gusting 11 19.4
2016-Aug-30 18:46 344 6 gusting 11 19.4
2016-Aug-30 18:40 022 6 gusting 18 19.4
2016-Aug-30 18:35 026 7 gusting 18 19.4
2016-Aug-30 18:30 018 8 gusting 15 19.4
2016-Aug-30 18:25 028 5 gusting 13 19.4
2016-Aug-30 18:20 342 6 gusting 14 19.4
2016-Aug-30 18:15 360 7 gusting 14 19.4
2016-Aug-30 18:10 360 8 gusting 14 19.4
2016-Aug-30 18:05 341 11 gusting 17 19.4
2016-Aug-30 18:00 360 9 gusting 17 19.4
2016-Aug-30 17:55 342 6 gusting 19 19.4
2016-Aug-30 17:50 338 13 gusting 19 19.4
2016-Aug-30 17:45 360 10 gusting 18 20.0
2016-Aug-30 17:40 360 10 gusting 15 20.0
2016-Aug-30 17:37 019 9 gusting 16 20.0
2016-Aug-30 17:31 338 9 gusting 16 20.0
2016-Aug-30 17:25 029 6 gusting 18 20.0
2016-Aug-30 17:20 360 11 gusting 18 20.0
2016-Aug-30 17:16 360 7 gusting 16 20.6
2016-Aug-30 17:10 022 6 gusting 17 20.6
2016-Aug-30 17:06 340 7 gusting 18 20.6
2016-Aug-30 17:00 351 7 gusting 15 21.1
2016-Aug-30 16:55 360 8 gusting 14 21.1
2016-Aug-30 16:51 330 7 gusting 14 21.7
2016-Aug-30 16:46 360 9 gusting 16 21.7
2016-Aug-30 16:42 346 10 gusting 17 21.1
2016-Aug-30 16:35 333 11 gusting 15 21.1
2016-Aug-30 16:31 306 9 gusting 14 20.6
2016-Aug-30 16:26 360 10 gusting 14 20.6
2016-Aug-30 16:20 320 10 gusting 15 20.6
2016-Aug-30 16:16 346 6 gusting 16 20.6
2016-Aug-30 16:11 297 10 gusting 16 21.1
2016-Aug-30 16:05 360 11 gusting 17 21.1
2016-Aug-30 16:01 331 12 gusting 17 20.6
2016-Aug-30 15:56 336 12 gusting 16 21.1
2016-Aug-30 15:50 295 9 gusting 15 21.1
2016-Aug-30 15:46 335 10 gusting 15 21.1
2016-Aug-30 15:40 313 8 gusting 15 21.7
2016-Aug-30 15:35 360 8 gusting 15 21.7
2016-Aug-30 15:30 309 7 gusting 15 21.7
2016-Aug-30 15:25 360 8 gusting 14 21.1
2016-Aug-30 15:20 334 7 gusting 15 21.1
2016-Aug-30 15:15 306 10 gusting 15 21.1
2016-Aug-30 15:10 306 10 gusting 13 21.1
2016-Aug-30 15:05 300 10 gusting 16 21.1
2016-Aug-30 15:00 325 8 gusting 16 21.1
2016-Aug-30 14:55 300 10 gusting 14 21.1
2016-Aug-30 14:50 347 8 gusting 13 21.7
2016-Aug-30 14:45 341 8 gusting 13 21.7
2016-Aug-30 14:40 338 9 gusting 15 21.7
2016-Aug-30 14:35 360 9 gusting 14 21.1
2016-Aug-30 14:30 309 8 gusting 14 21.7
2016-Aug-30 14:25 305 8 gusting 13 21.7
2016-Aug-30 14:20 331 8 gusting 13 22.2
2016-Aug-30 14:15 332 9 gusting 13 21.7
2016-Aug-30 14:10 298 7 gusting 13 21.1
2016-Aug-30 14:05 360 9 gusting 13 21.7
2016-Aug-30 14:00 310 8 gusting 13 22.2
2016-Aug-30 13:55 339 9 gusting 13 22.2
2016-Aug-30 13:50 306 7 gusting 13 21.7
2016-Aug-30 13:45 294 9 gusting 13 21.1
2016-Aug-30 13:40 326 7 gusting 13 21.7
2016-Aug-30 13:35 333 9 gusting 13 21.1
2016-Aug-30 13:30 318 9 gusting 13 21.1
2016-Aug-30 13:25 294 7 gusting 13 21.7
2016-Aug-30 13:20 308 7 gusting 12 21.7
2016-Aug-30 13:15 324 6 gusting 12 21.7
2016-Aug-30 13:10 299 7 gusting 12 21.7
2016-Aug-30 13:05 325 8 gusting 12 21.7
2016-Aug-30 13:00 331 7 gusting 12 21.7
2016-Aug-30 12:55 309 6 gusting 11 21.1
2016-Aug-30 12:50 360 8 gusting 11 21.1
2016-Aug-30 12:45 360 7 gusting 10 21.1
2016-Aug-30 12:40 289 6 gusting 11 20.6
2016-Aug-30 12:35 335 7 gusting 11 21.1
2016-Aug-30 12:30 329 7 gusting 11 20.6
2016-Aug-30 12:25 331 8 gusting 12 20.6
2016-Aug-30 12:20 360 8 gusting 12 21.1
2016-Aug-30 12:15 317 6 gusting 11 21.1
2016-Aug-30 12:10 296 7 gusting 11 20.6
2016-Aug-30 12:05 326 6 gusting 12 20.0
2016-Aug-30 12:00 341 7 gusting 13 20.0
2016-Aug-30 11:55 313 7 gusting 13 20.0
2016-Aug-30 11:50 321 6 gusting 10 20.0
2016-Aug-30 11:45 321 6 gusting 10 20.0
2016-Aug-30 11:40 360 6 gusting 10 20.0
2016-Aug-30 11:35 360 6 gusting 12 20.0
2016-Aug-30 11:30 325 8 gusting 12 20.0
2016-Aug-30 11:25 312 5 gusting 10 20.6
2016-Aug-30 11:20 279 5 gusting 11 20.0
2016-Aug-30 11:15 360 6 gusting 11 20.0
2016-Aug-30 11:10 360 7 gusting 12 20.6
2016-Aug-30 11:06 328 6 gusting 12 20.6
2016-Aug-30 11:00 335 6 gusting 11 20.6
2016-Aug-30 10:55 282 7 gusting 11 20.0
2016-Aug-30 10:50 360 6 gusting 10 20.6
2016-Aug-30 10:45 360 7 gusting 10 20.0
2016-Aug-30 10:40 342 7 gusting 9 20.0
2016-Aug-30 10:35 347 5 gusting 9 20.0
2016-Aug-30 10:30 327 5 gusting 10 20.0
2016-Aug-30 10:25 306 6 gusting 11 20.0
2016-Aug-30 10:20 333 6 gusting 11 20.0
2016-Aug-30 10:15 338 7 gusting 10 20.0
2016-Aug-30 10:10 023 5 gusting 6 20.0
2016-Aug-30 10:05 034 3 gusting 10 20.0
2016-Aug-30 10:00 009 5 gusting 10 19.4
2016-Aug-30 09:55 297 5 gusting 8 19.4
2016-Aug-30 09:50 346 6 gusting 8 19.4
2016-Aug-30 09:45 330 6 gusting 10 19.4
2016-Aug-30 09:40 342 3 gusting 9 19.4
2016-Aug-30 09:35 009 6 gusting 8 18.9
2016-Aug-30 09:30 009 5 gusting 8 18.9
2016-Aug-30 09:25 333 5 gusting 7 18.9
2016-Aug-30 02:55 346 0 gusting 3 17.2
2016-Aug-30 02:50 333 16.7